DW9005 Weather Reports


time (UTC)temp
C
wind
direction
speed
KPH
gust
KPH
rain 1hr
cm
rain 24hr
cm
rain mn
cm
humidity
%
barometer
mb
20260506073046 20 180 0.0 0.0 0.00 0.00 0.00 80 1011.3
20260506071526 20 186 0.0 0.0 0.00 0.00 0.00 80 1011.2
20260506061507 21 140 0.0 0.0 0.00 0.00 0.00 77 1012.0
20260506044601 21 186 0.0 0.0 0.00 0.00 0.00 76 1012.0
20260506041605 21 158 0.0 0.0 0.00 0.00 0.00 75 1011.7
20260506040057 21 252 0.0 0.0 0.00 0.00 0.00 75 1011.9
20260506034601 22 140 0.0 0.0 0.00 0.00 0.00 73 1011.8
20260506031536 22 181 0.0 0.0 0.00 0.00 0.00 71 1011.9
20260506030038 22 150 0.0 0.0 0.00 0.00 0.00 70 1011.5
20260506024518 21 177 0.0 0.0 0.00 0.00 0.00 69 1011.6
20260506023017 21 170 0.0 0.0 0.00 0.00 0.00 68 1011.8
20260506021505 22 169 0.0 0.0 0.00 0.00 0.00 67 1011.7
20260506020004 22 162 0.0 0.0 0.00 0.00 0.00 66 1011.4
20260506014504 21 162 0.0 0.0 0.00 0.00 0.00 67 1011.4
20260506013009 21 167 0.0 0.0 0.00 0.00 0.00 67 1011.6
20260506011510 22 169 0.0 0.0 0.00 0.00 0.00 66 1011.4
20260506010007 22 136 0.0 0.0 0.00 0.00 0.00 63 1011.5
20260506004504 22 138 0.0 0.0 0.00 0.00 0.00 62 1011.3
20260506003002 22 138 0.0 0.0 0.00 0.00 0.00 62 1011.3
20260506001553 23 171 0.0 0.0 0.00 0.00 0.00 62 1011.4
20260506000042 23 177 0.0 0.0 0.00 0.00 0.00 62 1011.6
20260505234524 23 154 0.0 0.0 0.00 0.00 0.00 61 1011.6
20260505233027 23 143 0.0 0.0 0.00 0.00 0.00 62 1011.9
20260505231505 23 176 0.0 0.0 0.00 0.00 0.00 61 1011.8
20260505230005 23 115 0.0 0.0 0.00 0.00 0.00 61 1012.0
20260505224546 23 169 0.0 0.0 0.00 0.00 0.00 61 1012.1
20260505223047 24 190 0.0 0.0 0.00 0.00 0.00 60 1012.0
20260505221536 24 181 0.0 0.0 0.00 0.00 0.00 61 1012.0
20260505220048 24 160 0.0 0.0 0.00 0.00 0.00 61 1012.1
20260505214536 24 132 0.0 0.0 0.00 0.00 0.00 60 1012.2
20260505213034 24 171 0.0 0.0 0.00 0.00 0.00 60 1012.2
20260505211531 23 225 0.0 0.0 0.00 0.00 0.00 60 1012.1
20260505210032 23 150 0.0 0.0 0.00 0.00 0.00 60 1012.2
20260505204528 23 171 0.0 0.0 0.00 0.00 0.00 60 1012.3
20260505203026 24 101 0.0 0.0 0.00 0.00 0.00 56 1012.4
20260505201506 25 140 0.0 0.0 0.00 0.00 0.00 56 1012.9
20260505200011 24 240 0.0 0.0 0.00 0.00 0.00 56 1013.1
20260505194548 24 157 0.0 0.0 0.00 0.00 0.00 56 1013.2
20260505193058 24 151 0.0 0.0 0.00 0.00 0.00 55 1013.3
20260505191528 24 157 0.0 0.0 0.00 0.00 0.00 56 1013.4
20260505190022 23 234 0.0 0.0 0.00 0.00 0.00 57 1013.7
20260505184502 23 184 0.0 0.0 0.00 0.00 0.00 60 1013.9
20260505183101 23 175 0.0 0.0 0.00 0.00 0.00 60 1014.1
20260505181549 22 179 0.0 0.0 0.00 0.00 0.00 58 1014.2
20260505180042 22 125 0.0 0.0 0.00 0.00 0.00 58 1014.3
20260505174525 23 61 0.0 0.0 0.00 0.00 0.00 57 1014.3
20260505173021 23 290 0.0 0.0 0.00 0.00 0.00 58 1014.6
20260505171505 22 194 0.0 0.0 0.00 0.00 0.00 60 1014.9
20260505170001 22 135 0.0 0.0 0.00 0.00 0.00 59 1015.0
20260505164546 22 177 0.0 0.0 0.00 0.00 0.00 58 1015.0
20260505163042 22 144 0.0 0.0 0.00 0.00 0.00 59 1015.1
20260505161536 22 176 0.0 0.0 0.00 0.00 0.00 60 1015.1
20260505153059 21 165 0.0 0.0 0.00 0.00 0.00 64 1015.3
20260505151545 21 182 0.0 0.0 0.00 0.00 0.00 66 1015.3
20260505130112 -17 0.0 0.0 0.00 0.00 0.00 1015.3
20260505124543 -17 0.0 0.0 0.00 0.00 0.00 1015.0
20260505123034 -17 0.0 0.0 0.00 0.00 0.00 1014.9
20260505121528 -17 0.0 0.0 0.00 0.00 0.00 1014.9
20260505120012 -17 0.0 0.0 0.00 0.00 0.00 1014.7
20260505114555 -17 0.0 0.0 0.00 0.00 0.00 1014.5
20260505113105 -17 0.0 0.0 0.00 0.00 0.00 1014.3
20260505111536 -17 0.0 0.0 0.00 0.00 0.00 1014.3
20260505101550 -17 0.0 0.0 0.00 0.00 0.00 1014.3
20260505100041 -17 0.0 0.0 0.00 0.00 0.00 1014.4
20260505094519 -17 0.0 0.0 0.00 0.00 0.00 1014.5
20260505093015 -17 0.0 0.0 0.00 0.00 0.00 1014.6
20260505091612 -17 0.0 0.0 0.00 0.00 0.00 1014.8
20260505090053 -17 0.0 0.0 0.00 0.00 0.00 1014.6
20260505084553 -17 0.0 0.0 0.00 0.00 0.00 1014.7
20260505083029 -17 0.0 0.0 0.00 0.00 0.00 1015.0
20260505081525 -17 0.0 0.0 0.00 0.00 0.00 1015.0